STARLINK-35262

Last updated on Mon Oct 20 2025 00:02:07 GMT+0000 (Coordinated Universal Time)

1 65847U 25221AA 25292.25002315 -.01582024 00000+0 -29106-1 0 9992 2 65847 53.1601 27.7592 0000936 93.8398 277.0561 15.51593127 4436
UTC large
Height (km)
Speed (km/s)
/
Latitude / Longitude
Inclination (degrees)
Orbital Period (minutes)
Azimuth
Elevation
Range (km)
Doppler Factor

Next 0 passes for location: London (51.5072 / 0.1276)

Sorry there are no passes over London.